Imperial, CA

11:32 AM PDT on May 27, 2017 (GMT -0700)
Imperial County

Weather History for KIPL - August, 2012

Change the Weather History Date:

Thursday, August 9, 2012

  Actual Average Record
Temperature  
Mean Temperature 97 °F -  
Max Temperature 107 °F 105 °F 114 °F (2004)
Min Temperature 87 °F 79 °F 61 °F (1949)
Cooling Degree Days 32    
Growing Degree Days 47 (Base 50)    
Moisture  
Dew Point 70 °F    
Average Humidity 42    
Maximum Humidity 63    
Minimum Humidity 27    
Precipitation  
Precipitation 0.00 in - - ()
Sea Level Pressure  
Sea Level Pressure 29.74 in    
Wind  
Wind Speed 9 mph (ESE)    
Max Wind Speed 16 mph    
Max Gust Speed -    
Visibility 7 miles    
Events      
Averages and records for this station are not official NWS values.
T = Trace of Precipitation, MM = Missing Value Source: NWS Daily Summary

Daily Weather History Graph

Daily Weather History Graph

Search for Another Location

Airport or City:

Trip Planner

Search our weather history database for the weather conditions in past years. The results will help you decide how hot, cold, wet, or windy it might be!

Date:

Astronomy

Aug. 09, 2012 Rise Set
Actual Time 6:01 AM PDT 7:33 PM PDT
Civil Twilight 5:35 AM PDT 7:59 PM PDT
Nautical Twilight 5:03 AM PDT 8:30 PM PDT
Astronomical Twilight 4:30 AM PDT 9:03 PM PDT
Moon 11:57 PM PDT (8/9) 1:18 PM PDT (8/9)
Length of Visible Light 14h 23m
Length of Day
13h 31m
Waning Gibbous, 50% of the Moon is Illuminated
Aug 9
Waning Gibbous
Aug 17
New
Aug 24
First Quarter
Aug 31
Full
Sep 8
Last Quarter

Hourly Weather History & Observations

Time (PDT) Temp. Heat Index Dew Point Humidity Pressure Visibility Wind Dir Wind Speed Gust Speed Precip Events Conditions
12:53 AM 95.0 °F 94.8 °F 60.1 °F 31% 29.73 in 10.0 mi SW 4.6 mph - N/A   Clear
1:53 AM 93.9 °F 93.6 °F 60.1 °F 32% 29.71 in 10.0 mi West 5.8 mph - N/A   Clear
2:53 AM 93.9 °F 100.3 °F 70.0 °F 46% 29.75 in 8.0 mi SE 16.1 mph - N/A   Clear
3:13 AM 93.2 °F 100.5 °F 71.6 °F 49% 29.75 in 7.0 mi SE 15.0 mph - N/A   Mostly Cloudy
3:53 AM 93.0 °F 97.9 °F 69.1 °F 45% 29.75 in 4.0 mi SSE 16.1 mph - N/A   Haze
4:19 AM 93.2 °F 98.8 °F 69.8 °F 46% 29.74 in 2.5 mi South 12.7 mph - N/A   Haze
4:53 AM 93.2 °F 98.8 °F 69.8 °F 46% 29.74 in 2.5 mi SSE 9.2 mph - N/A   Haze
5:35 AM 89.6 °F 94.7 °F 69.8 °F 52% 29.75 in 3.0 mi ENE 10.4 mph - N/A   Haze
5:53 AM 88.0 °F 94.7 °F 72.0 °F 59% 29.76 in 4.0 mi ENE 8.1 mph - N/A   Haze
6:19 AM 87.8 °F 95.6 °F 73.4 °F 62% 29.77 in 2.5 mi East 5.8 mph - N/A   Haze
6:27 AM 87.8 °F 95.6 °F 73.4 °F 62% 29.77 in 3.0 mi ENE 3.5 mph - N/A   Haze
6:53 AM 88.0 °F 96.5 °F 73.9 °F 63% 29.78 in 3.0 mi Calm Calm - N/A   Haze
7:28 AM 89.6 °F 98.2 °F 73.4 °F 59% 29.78 in 3.0 mi NE 8.1 mph - N/A   Haze
7:53 AM 90.0 °F 100.2 °F 75.0 °F 61% 29.80 in 4.0 mi East 8.1 mph - N/A   Haze
8:00 AM 89.6 °F 99.8 °F 75.2 °F 62% 29.79 in 4.0 mi East 9.2 mph - N/A   Haze
8:53 AM 93.0 °F 104.6 °F 75.0 °F 56% 29.81 in 5.0 mi East 5.8 mph - N/A   Haze
9:53 AM 97.0 °F 107.7 °F 73.9 °F 47% 29.82 in 5.0 mi ESE 6.9 mph - N/A   Haze
10:53 AM 99.0 °F 109.3 °F 73.0 °F 43% 29.83 in 6.0 mi ESE 12.7 mph - N/A   Haze
11:53 AM 104.0 °F 115.8 °F 73.0 °F 37% 29.81 in 8.0 mi ESE 15.0 mph - N/A   Overcast
12:53 PM 105.1 °F 113.6 °F 70.0 °F 32% 29.79 in 10.0 mi SSE 11.5 mph - N/A   Overcast
1:53 PM 106.0 °F 116.5 °F 71.1 °F 33% 29.77 in 10.0 mi ESE 15.0 mph - N/A   Overcast
2:31 PM 105.8 °F 114.2 °F 69.8 °F 31% 29.74 in 10.0 mi SE 15.0 mph - N/A   Overcast
2:42 PM 105.8 °F 111.5 °F 66.2 °F 28% 29.74 in 10.0 mi SE 11.5 mph - N/A   Overcast
2:53 PM 106.0 °F 113.6 °F 69.1 °F 30% 29.73 in 10.0 mi SE 13.8 mph - N/A   Overcast
3:11 PM 105.8 °F 111.5 °F 66.2 °F 28% 29.72 in 10.0 mi ESE 13.8 mph - N/A   Overcast
3:48 PM 102.2 °F 108.4 °F 68.0 °F 33% 29.70 in 10.0 mi SE 11.5 mph - N/A   Overcast
3:53 PM 102.9 °F 109.1 °F 68.0 °F 32% 29.71 in 10.0 mi ESE 10.4 mph - N/A   Overcast
4:53 PM 106.0 °F 111.8 °F 66.9 °F 28% 29.68 in 10.0 mi East 6.9 mph - N/A   Overcast
5:53 PM 107.1 °F 113.0 °F 66.9 °F 27% 29.67 in 10.0 mi East 6.9 mph - N/A   Overcast
6:53 PM 106.0 °F 111.8 °F 66.9 °F 28% 29.66 in 10.0 mi East 5.8 mph - N/A   Overcast
7:48 PM 102.2 °F 110.0 °F 69.8 °F 35% 29.66 in 10.0 mi SE 8.1 mph - N/A   Overcast
7:53 PM 102.9 °F 109.9 °F 69.1 °F 33% 29.67 in 10.0 mi SE 9.2 mph - N/A   Overcast
8:53 PM 100.0 °F 107.0 °F 69.1 °F 37% 29.69 in 10.0 mi SE 3.5 mph - N/A   Overcast
9:53 PM 98.1 °F 105.0 °F 70.0 °F 40% 29.70 in 10.0 mi SE 6.9 mph - N/A   Overcast
10:53 PM 98.1 °F 105.0 °F 70.0 °F 40% 29.70 in 10.0 mi South 5.8 mph - N/A   Mostly Cloudy
11:53 PM 91.0 °F 97.6 °F 71.1 °F 52% 29.69 in 10.0 mi West 3.5 mph - N/A   Clear